Location: Kalberh�ni
(46.4610°N, 7.2453°E)
Time: 09:38:24
(UTC+00:00)

Lacrosse 4 Rocket - Pass Details

Date: 27 October 2021
Orbit: 538 x 619 km, 68.0° (Epoch: 28 November)

Event Time Altitude Azimuth Distance (km) Brightness Sun altitude
Rises 17:40:05 0° 323° (NW) 2,822 5.4 -13.7°
Reaches altitude 10° 17:42:23 10° 316° (NW) 1,931 4.7 -14.1°
Maximum altitude 17:46:29 43° 246° (WSW) 857 2.8 -14.8°
Drops below altitude 10° 17:50:39 10° 175° (S) 1,957 4.1 -15.5°
Sets 17:53:00 0° 168° (SSE) 2,865 4.9 -15.9°
